#timestamp,LO_Frequency,Hit,StdDev 
1534100415.3,286047003.8,P
1534100435.1,286047001.6,P
1534100455.9,286047004.1,P
1534100475.7,286047001.8,N
1534100495.5,286047005.1,Y
1534100515.4,286047008.3,P
1534100535.2,286047005.3,N
1534100555.1,286047006.6,N
1534100556.0,286047006.6,Y
1534100575.8,286047001.9,P
1534100595.6,286046998.0,N
1534100615.5,286046997.0,N
1534100635.3,286047000.8,N
1534100655.1,286046999.8,N
1534100675.9,286046998.4,N
1534100695.7,286046998.5,N
1534100715.6,286046998.6,N
1534100735.4,286046998.5,N
1534100755.2,286047000.9,N
1534100775.1,286047000.8,N
1534100776.0,286047000.8,N
1534100795.8,286046998.9,N
1534100815.7,286046995.3,N
1534100835.5,286046997.1,N
1534100855.3,286046997.0,N
1534100875.2,286046997.0,N
1534100895.9,286046999.2,N
1534100915.7,286046996.5,N
1534100935.6,286046997.7,N
1534100955.4,286047001.0,N
1534100975.3,286046998.6,N
1534100995.1,286047001.2,N
1534100996.0,286047001.2,N
1534101015.8,286046999.8,N
1534101035.7,286047002.0,N
1534101055.5,286047001.5,N
1534101075.3,286047005.4,N
1534101095.2,286047003.2,N
1534101115.0,286047004.4,N
1534101115.9,286047004.4,N
1534101135.8,286047003.8,N
1534101155.6,286047001.3,N
1534101175.4,286047005.4,N
1534101195.3,286047005.6,N
1534101215.1,286047007.1,N
1534101235.8,286047008.8,N
1534101255.7,286047008.8,N
1534101275.5,286047008.9,N
1534101295.4,286047007.9,N
1534101315.2,286047010.2,N
1534101335.0,286047008.5,N
1534101335.9,286047008.5,N
1534101355.8,286047008.5,N
1534101375.6,286047010.5,N
1534101395.5,286047010.1,N
1534101415.3,286047010.2,N
1534101435.1,286047010.6,N
1534101455.9,286047009.5,N
1534101475.7,286047010.0,N
1534101495.5,286047011.8,Y
1534101515.4,286047005.5,P
1534101535.2,286047005.7,P
1534101555.1,286047003.0,P
1534101556.0,286047003.0,N
1534101575.8,286047003.4,N
1534101595.6,286047005.0,Y
1534101615.5,286047002.6,P
1534101635.3,286046999.9,N
1534101655.2,286047002.4,N
1534101675.9,286047003.7,N
1534101695.7,286047003.8,N
1534101715.6,286047003.2,N
1534101735.4,286047005.1,Y
1534101755.2,286047001.6,P
1534101775.1,286047004.1,P
1534101776.0,286047004.1,P
1534101795.8,286047003.6,Y
1534101815.7,286047002.2,P
1534101835.5,286047000.2,N
1534101855.3,286047001.3,N
1534101875.2,286047000.1,N
1534101895.0,286047000.0,N
1534101895.9,286047000.0,N
1534101915.8,286047001.8,N
1534101935.6,286047001.3,N
1534101955.4,286047001.5,N
1534101975.3,286047001.7,N
1534101995.1,286047001.3,N
1534102015.8,286047003.5,Y
1534102035.7,286047005.9,P
1534102055.5,286047003.6,N
1534102075.4,286047005.3,N
1534102095.2,286047004.8,N
1534102115.0,286047007.1,Y
1534102115.9,286047007.1,P
1534102135.8,286047003.0,N
1534102155.6,286047002.9,N
1534102175.5,286047004.4,N
1534102195.3,286047002.4,N
1534102215.1,286046999.9,N
1534102235.9,286047003.3,N
1534102255.7,286047005.8,Y
1534102275.5,286047000.9,P
1534102295.4,286046998.1,N
1534102315.2,286047000.2,N
1534102335.1,286047001.4,N
1534102336.0,286047001.4,N
1534102355.8,286047007.5,Y
1534102375.6,286047006.2,P
1534102395.5,286047006.5,N
1534102415.3,286047006.6,N
1534102435.2,286047006.6,N
1534102455.9,286047004.7,N
1534102475.7,286047006.7,Y
1534102495.6,286047001.4,P
1534102515.4,286047003.4,N
1534102535.2,286047003.0,N
1534102555.1,286047004.0,N
1534102556.0,286047004.0,Y
1534102575.8,286046998.7,P
1534102595.7,286046998.7,N
1534102615.5,286046997.0,N
1534102635.3,286046996.8,N
1534102655.2,286046998.2,N
1534102675.0,286047001.2,N
1534102675.9,286047001.2,N
1534102695.8,286047004.4,N
1534102715.6,286047001.5,N
1534102735.4,286047003.5,N
1534102755.3,286047003.1,N
1534102775.1,286047002.2,N
1534102795.9,286047003.1,N
1534102815.7,286047005.2,N
1534102835.5,286047000.4,N
1534102855.4,286047000.8,N
1534102875.2,286046998.5,N
1534102895.0,286047000.2,N
1534102895.9,286047000.2,N
1534102915.8,286047002.3,N
1534102935.6,286047003.7,N
1534102955.5,286047002.1,N
1534102975.3,286046999.8,N
1534102995.1,286047000.6,N
1534103015.9,286046998.4,N
1534103035.7,286046999.1,N
1534103055.5,286046997.8,N
1534103075.4,286046997.8,N
1534103095.2,286046999.5,N
1534103115.1,286046999.2,N
1534103116.0,286046999.2,N
1534103135.8,286046995.7,N
1534103155.6,286046995.6,N
1534103175.5,286046996.1,N
1534103195.3,286046992.0,Y
1534103215.1,286046992.8,P
1534103235.9,286046990.6,N
1534103255.7,286046991.6,N
1534103275.6,286046991.0,N
1534103295.4,286046988.9,Y
1534103315.2,286046995.2,P
1534103335.1,286046995.2,P
1534103336.0,286046995.2,P
1534103355.8,286046994.5,Y
1534103375.7,286046998.3,P
1534103395.5,286046998.1,N
1534103415.3,286047000.8,N
1534103435.2,286046998.5,N
1534103455.0,286046999.3,N
1534103455.9,286046999.3,N
1534103475.8,286047000.6,N
1534103495.6,286047001.0,N
1534103515.4,286046999.4,N
1534103535.3,286046996.6,N
1534103555.1,286046996.8,N
1534103575.8,286046999.1,N
1534103595.7,286046999.2,N
1534103615.5,286046996.7,N
1534103635.4,286046999.4,N
1534103655.2,286046999.2,N
1534103675.0,286046996.9,N
1534103675.9,286046996.9,N
1534103695.8,286046997.2,N
1534103715.6,286046995.5,N
1534103735.4,286046996.5,N
1534103755.3,286046995.7,N
1534103775.1,286046996.1,N
1534103795.9,286046996.2,N
1534103815.7,286046996.3,N
1534103835.5,286046996.3,N
1534103855.4,286046995.9,N
1534103875.2,286046993.9,Y
1534103895.0,286046996.9,P
1534103896.0,286046996.9,P
1534103915.8,286046996.8,P
1534103935.6,286046999.6,N
1534103955.5,286046997.5,N
1534103975.3,286046996.4,Y
1534103995.1,286046998.6,P
